K9NRG Weather Reports


time (UTC)temp
C
wind
direction
speed
KPH
gust
KPH
rain 1hr
cm
rain 24hr
cm
rain mn
cm
humidity
%
barometer
mb
20260906231002 28 342 3.2 19.3 0.00 0.00 0.00 18 1001.6
20260906230002 28 6 1.6 9.7 0.00 0.00 0.00 18 1001.1
20260906225002 28 45 1.6 11.3 0.00 0.00 0.00 18 1001.0
20260906223001 29 274 0.0 12.9 0.00 0.00 0.00 18 1001.0
20260906222002 30 352 1.6 9.7 0.00 0.00 0.00 17 1000.7
20260906221002 29 21 3.2 12.9 0.00 0.00 0.00 18 1000.8
20260906220002 29 52 0.0 8.0 0.00 0.00 0.00 18 1001.4
20260906214002 30 359 1.6 19.3 0.00 0.00 0.00 17 1000.7
20260906213002 30 41 0.0 9.7 0.00 0.00 0.00 18 1000.7
20260906211002 30 40 1.6 19.3 0.00 0.00 0.00 18 1001.1
20260906210002 29 350 4.8 11.3 0.00 0.00 0.00 19 1001.6
20260906202002 28 143 1.6 12.9 0.00 0.00 0.00 18 1002.0
20260906201002 29 68 0.0 4.8 0.00 0.00 0.00 18 1001.9
20260906195002 28 182 4.8 16.1 0.00 0.00 0.00 19 1001.9
20260906194002 30 5 1.6 11.3 0.00 0.00 0.00 18 1001.6
20260906193001 29 358 1.6 9.7 0.00 0.00 0.00 19 1002.2
20260906192002 28 230 1.6 16.1 0.00 0.00 0.00 19 1003.0
20260906191001 28 180 1.6 12.9 0.00 0.00 0.00 19 1003.0
20260906190002 28 215 1.6 9.7 0.00 0.00 0.00 19 1002.6
20260906185002 27 103 0.0 11.3 0.00 0.00 0.00 20 1003.2
20260906184002 27 71 1.6 14.5 0.00 0.00 0.00 21 1003.4
20260906183001 28 161 0.0 3.2 0.00 0.00 0.00 20 1003.1
20260906182002 26 26 0.0 11.3 0.00 0.00 0.00 21 1004.1
20260906181002 26 140 3.2 12.9 0.00 0.00 0.00 22 1004.6
20260906180001 27 0 0.0 9.7 0.00 0.00 0.00 21 1004.1
20260906175002 26 84 0.0 3.2 0.00 0.00 0.00 22 1004.7
20260906174002 25 82 1.6 9.7 0.00 0.00 0.00 23 1005.5
20260906173001 24 69 1.6 4.8 0.00 0.00 0.00 24 1005.5
20260906172002 24 66 0.0 8.0 0.00 0.00 0.00 24 1005.6
20260906171002 23 73 0.0 4.8 0.00 0.00 0.00 24 1006.4
20260906170003 23 73 1.6 4.8 0.00 0.00 0.00 25 1006.5
20260906164002 22 72 3.2 9.7 0.00 0.00 0.00 27 1005.9
20260906163002 21 72 1.6 4.8 0.00 0.00 0.00 27 1006.7
20260906162002 21 72 1.6 4.8 0.00 0.00 0.00 28 1006.5
20260906160003 21 75 1.6 11.3 0.00 0.00 0.00 28 1006.6
20260906155003 21 80 1.6 9.7 0.00 0.00 0.00 29 1005.6
20260906154003 21 86 1.6 9.7 0.00 0.00 0.00 31 1005.7
20260906153002 20 68 1.6 8.0 0.00 0.00 0.00 33 1006.3
20260906152003 19 73 1.6 9.7 0.00 0.00 0.00 36 1006.9
20260906150003 18 121 1.6 4.8 0.00 0.00 0.00 36 1007.1
20260906145003 17 127 0.0 1.6 0.00 0.00 0.00 39 1007.1
20260906144004 16 127 0.0 0.0 0.00 0.00 0.00 43 1007.5
20260906142003 15 127 0.0 1.6 0.00 0.00 0.00 47 1007.9
20260906140003 13 127 0.0 1.6 0.00 0.00 0.00 52 1008.3
20260906135003 13 127 0.0 1.6 0.00 0.00 0.00 54 1007.6
20260906134003 11 127 0.0 0.0 0.00 0.00 0.00 55 1008.5
20260906132003 10 127 0.0 0.0 0.00 0.00 0.00 59 1008.8
20260906131003 10 127 0.0 0.0 0.00 0.00 0.00 58 1008.7
20260906130003 10 127 0.0 0.0 0.00 0.00 0.00 57 1008.7
20260906125003 11 152 0.0 0.0 0.00 0.00 0.00 56 1007.0
20260906123003 11 154 0.0 0.0 0.00 0.00 0.00 56 1006.7
20260906122003 11 153 0.0 0.0 0.00 0.00 0.00 56 1006.7
20260906121003 11 154 0.0 0.0 0.00 0.00 0.00 56 1006.6
20260906120002 11 154 0.0 0.0 0.00 0.00 0.00 57 1006.5
20260906114003 11 154 0.0 0.0 0.00 0.00 0.00 57 1005.7
20260906113003 11 154 0.0 0.0 0.00 0.00 0.00 57 1005.6
20260906112002 11 154 0.0 0.0 0.00 0.00 0.00 57 1005.6
20260906111003 11 154 0.0 0.0 0.00 0.00 0.00 57 1005.6
20260906110003 11 154 0.0 0.0 0.00 0.00 0.00 56 1005.5
20260906105002 11 154 0.0 0.0 0.00 0.00 0.00 56 1004.5
20260906104003 11 154 0.0 0.0 0.00 0.00 0.00 55 1004.4
20260906103003 11 154 0.0 0.0 0.00 0.00 0.00 55 1004.5
20260906102003 12 154 0.0 0.0 0.00 0.00 0.00 55 1004.5
20260906101003 12 154 0.0 0.0 0.00 0.00 0.00 54 1004.6
20260906100003 12 154 0.0 0.0 0.00 0.00 0.00 53 1004.6
20260906095003 12 153 0.0 0.0 0.00 0.00 0.00 53 1005.2
20260906094003 12 154 0.0 0.0 0.00 0.00 0.00 52 1004.5
20260906093003 12 154 0.0 0.0 0.00 0.00 0.00 52 1004.5
20260906092003 12 154 0.0 0.0 0.00 0.00 0.00 51 1004.6
20260906091003 12 154 0.0 0.0 0.00 0.00 0.00 51 1004.6
20260906090003 13 154 0.0 0.0 0.00 0.00 0.00 50 1004.4
20260906085003 13 154 0.0 0.0 0.00 0.00 0.00 50 1003.5
20260906084003 13 154 0.0 0.0 0.00 0.00 0.00 51 1003.7
20260906082003 12 154 0.0 0.0 0.00 0.00 0.00 50 1004.2
20260906081003 12 154 0.0 0.0 0.00 0.00 0.00 50 1004.1
20260906080002 13 154 0.0 0.0 0.00 0.00 0.00 49 1003.7
20260906075003 13 154 0.0 0.0 0.00 0.00 0.00 49 1003.7
20260906074003 13 154 0.0 0.0 0.00 0.00 0.00 49 1003.7
20260906073003 13 154 0.0 0.0 0.00 0.00 0.00 48 1003.9
20260906072003 13 154 0.0 0.0 0.00 0.00 0.00 48 1003.8
20260906071002 13 154 0.0 0.0 0.00 0.00 0.00 47 1003.9
20260906070002 13 154 0.0 0.0 0.00 0.00 0.00 47 1004.0
20260906065003 13 154 0.0 0.0 0.00 0.00 0.00 47 1004.5
20260906064002 13 154 0.0 0.0 0.00 0.00 0.00 47 1004.5
20260906063003 13 154 0.0 0.0 0.00 0.00 0.00 47 1004.3
20260906062003 13 154 0.0 0.0 0.00 0.00 0.00 46 1004.4
20260906061002 13 154 0.0 0.0 0.00 0.00 0.00 46 1004.3
20260906060003 14 154 0.0 0.0 0.00 0.00 0.00 45 1004.2
20260906055003 14 154 0.0 0.0 0.00 0.00 0.00 44 1005.6
20260906054004 15 154 0.0 0.0 0.00 0.00 0.00 43 1005.1
20260906053003 15 154 0.0 0.0 0.00 0.00 0.00 41 1005.1
20260906052003 15 154 0.0 0.0 0.00 0.00 0.00 41 1004.9
20260906051003 15 154 0.0 0.0 0.00 0.00 0.00 40 1005.0
20260906050003 16 154 0.0 0.0 0.00 0.00 0.00 40 1004.4
20260906045003 16 154 0.0 0.0 0.00 0.00 0.00 39 1003.9
20260906044004 16 154 0.0 0.0 0.00 0.00 0.00 38 1004.0
20260906043004 17 154 0.0 1.6 0.00 0.00 0.00 36 1003.6
20260906042003 17 154 0.0 0.0 0.00 0.00 0.00 35 1003.4
20260906041004 18 154 0.0 0.0 0.00 0.00 0.00 34 1003.4
20260906040003 18 154 0.0 0.0 0.00 0.00 0.00 33 1002.9
20260906035003 18 154 0.0 1.6 0.00 0.00 0.00 32 1003.9
20260906033003 20 154 0.0 3.2 0.00 0.00 0.00 30 1003.4
20260906032003 20 153 0.0 1.6 0.00 0.00 0.00 29 1003.3
20260906030003 20 150 1.6 4.8 0.00 0.00 0.00 28 1002.8
20260906025003 21 162 0.0 4.8 0.00 0.00 0.00 27 1003.7
20260906024003 21 174 1.6 4.8 0.00 0.00 0.00 27 1003.5
20260906023003 21 188 1.6 11.3 0.00 0.00 0.00 26 1003.3
20260906022003 21 165 1.6 8.0 0.00 0.00 0.00 27 1003.1
20260906021003 21 193 0.0 9.7 0.00 0.00 0.00 27 1002.5
20260906015003 22 153 0.0 8.0 0.00 0.00 0.00 26 1003.9
20260906014003 22 179 1.6 4.8 0.00 0.00 0.00 26 1003.8
20260906013003 23 184 0.0 8.0 0.00 0.00 0.00 26 1003.6
20260906012004 23 176 1.6 4.8 0.00 0.00 0.00 26 1003.1
20260906010003 24 219 0.0 4.8 0.00 0.00 0.00 25 1003.2
20260906004003 25 345 0.0 9.7 0.00 0.00 0.00 24 1004.1
20260906003003 26 358 0.0 4.8 0.00 0.00 0.00 23 1004.1
20260906002003 26 0 0.0 8.0 0.00 0.00 0.00 22 1003.4
20260906001004 26 208 1.6 12.9 0.00 0.00 0.00 22 1003.3
20260906000003 27 24 0.0 3.2 0.00 0.00 0.00 21 1003.2
20260905235003 27 1 3.2 12.9 0.00 0.00 0.00 21 1003.2
20260905234003 27 359 3.2 9.7 0.00 0.00 0.00 21 1003.2
20260905233004 27 10 0.0 12.9 0.00 0.00 0.00 20 1002.9
20260905232003 27 5 1.6 11.3 0.00 0.00 0.00 19 1003.5